Zurück zum Katalog

STTW-5

AktivWissenschaftHEO
NORAD 21833·PAYLOAD·🇨🇳 China

Gestartet Dec 28, 1991 von Xichang Satellite Launch Center

Loading…

Nächste Überflüge (nächste 24 Stunden)

TLE

AktuellSource: Space-Track

Epoche: Sep 13, 2026, 22:44 UTC

1 21833U 91088A   26256.94755271 -.00000127  00000-0  00000-0 0  9995
2 21833  32.1700  44.8689 6551538 241.0613  39.3195  2.27643924361268

Verfolge STTW-5 in Echtzeit mit AllMySat

Download on the App Store